datetime,total release
1934-04-01,5880.0
1934-04-02,6070.0
1934-04-03,5840.0
1934-04-04,5690.0
1934-04-05,5540.0
1934-04-06,5440.0
1934-04-07,5880.0
1934-04-08,6190.0
1934-04-09,6240.0
1934-04-10,6290.0
1934-04-11,6190.0
1934-04-12,6140.0
1934-04-13,6170.0
1934-04-14,6070.0
1934-04-15,5910.0
1934-04-16,5580.0
1934-04-17,5620.0
1934-04-18,5690.0
1934-04-19,6240.0
1934-04-20,7920.0
1934-04-21,8350.0
1934-04-22,9970.0
1934-04-23,9970.0
1934-04-24,9690.0
1934-04-25,9400.0
1934-04-26,9150.0
1934-04-27,9830.0
1934-04-28,10700.0
1934-04-29,11900.0
1934-04-30,12200.0
1934-05-01,12900.0
1934-05-02,13700.0
1934-05-03,14700.0
1934-05-04,14800.0
1934-05-05,14600.0
1934-05-06,14300.0
1934-05-07,15400.0
1934-05-08,17400.0
1934-05-09,15300.0
1934-05-10,14700.0
1934-05-11,13700.0
1934-05-12,13800.0
1934-05-13,15700.0
1934-05-14,19200.0
1934-05-15,21900.0
1934-05-16,24400.0
1934-05-17,25000.0
1934-05-18,25100.0
1934-05-19,24900.0
1934-05-20,22500.0
1934-05-21,20100.0
1934-05-22,19900.0
1934-05-23,20000.0
1934-05-24,20300.0
1934-05-25,19600.0
1934-05-26,19000.0
1934-05-27,18200.0
1934-05-28,18100.0
1934-05-29,17100.0
1934-05-30,15800.0
1934-05-31,17900.0
1934-06-01,17500.0
1934-06-02,18800.0
1934-06-03,18200.0
1934-06-04,17300.0
1934-06-05,18600.0
1934-06-06,18600.0
1934-06-07,17100.0
1934-06-08,16000.0
1934-06-09,14200.0
1934-06-10,13300.0
1934-06-11,12600.0
1934-06-12,12000.0
1934-06-13,11600.0
1934-06-14,10600.0
1934-06-15,9870.0
1934-06-16,9220.0
1934-06-17,8740.0
1934-06-18,8030.0
1934-06-19,7410.0
1934-06-20,7050.0
1934-06-21,6580.0
1934-06-22,6050.0
1934-06-23,5800.0
1934-06-24,5400.0
1934-06-25,5080.0
1934-06-26,4990.0
1934-06-27,4860.0
1934-06-28,4420.0
1934-06-29,4280.0
1934-06-30,4100.0
1934-07-01,3910.0
1934-07-02,3620.0
1934-07-03,3520.0
1934-07-04,3470.0
1934-07-05,3300.0
1934-07-06,3530.0
1934-07-07,3570.0
1934-07-08,3320.0
1934-07-09,3300.0
1934-07-10,3180.0
1934-07-11,3130.0
1934-07-12,2950.0
1934-07-13,2830.0
1934-07-14,2680.0
1934-07-15,2600.0
1934-07-16,2620.0
1934-07-17,2470.0
1934-07-18,2360.0
1934-07-19,2340.0
1934-07-20,2280.0
1934-07-21,2230.0
1934-07-22,2230.0
1934-07-23,2170.0
1934-07-24,2200.0
1934-07-25,2360.0
1934-07-26,2200.0
1934-07-27,2280.0
1934-07-28,2260.0
1934-07-29,2440.0
1934-07-30,2420.0
1934-07-31,2490.0
1934-08-01,2720.0
1934-08-02,2290.0
1934-08-03,2290.0
1934-08-04,2970.0
1934-08-05,2860.0
1934-08-06,2770.0
1934-08-07,2510.0
1934-08-08,2830.0
1934-08-09,2390.0
1934-08-10,2440.0
1934-08-11,2240.0
1934-08-12,2230.0
1934-08-13,2010.0
1934-08-14,1940.0
1934-08-15,2180.0
1934-08-16,2190.0
1934-08-17,2010.0
1934-08-18,2030.0
1934-08-19,2260.0
1934-08-20,2260.0
1934-08-21,2210.0
1934-08-22,2280.0
1934-08-23,3260.0
1934-08-24,3330.0
1934-08-25,3120.0
1934-08-26,3420.0
1934-08-27,3010.0
1934-08-28,2820.0
1934-08-29,2870.0
1934-08-30,3000.0
1934-08-31,4820.0
1934-09-01,6390.0
1934-09-02,7380.0
1934-09-03,9080.0
1934-09-04,6580.0
1934-09-05,5110.0
1934-09-06,4630.0
1934-09-07,3690.0
1934-09-08,3260.0
1934-09-09,2940.0
1934-09-10,2970.0
1934-09-11,2790.0
1934-09-12,2740.0
1934-09-13,2440.0
1934-09-14,2380.0
1934-09-15,2420.0
1934-09-16,2380.0
1934-09-17,2310.0
1934-09-18,2160.0
1934-09-19,2160.0
1934-09-20,2060.0
1934-09-21,2160.0
1934-09-22,2470.0
1934-09-23,2480.0
1934-09-24,2720.0
1934-09-25,2560.0
1934-09-26,2460.0
1934-09-27,2330.0
1934-09-28,2200.0
1934-09-29,2080.0
1934-09-30,2020.0
1934-10-01,3620.0
1934-10-02,4220.0
1934-10-03,3690.0
1934-10-04,3370.0
1934-10-05,3110.0
1934-10-06,3580.0
1934-10-07,3640.0
1934-10-08,3530.0
1934-10-09,3330.0
1934-10-10,3310.0
1934-10-11,3210.0
1934-10-12,3170.0
1934-10-13,3120.0
1934-10-14,3090.0
1934-10-15,2920.0
1934-10-16,2880.0
1934-10-17,2820.0
1934-10-18,2910.0
1934-10-19,2760.0
1934-10-20,2790.0
1934-10-21,2650.0
1934-10-22,2650.0
1934-10-23,2820.0
1934-10-24,2770.0
1934-10-25,2850.0
1934-10-26,2870.0
1934-10-27,2990.0
1934-10-28,2920.0
1934-10-29,2940.0
1934-10-30,2900.0
1934-10-31,2940.0
1934-11-01,3020.0
1934-11-02,3070.0
1934-11-03,3080.0
1934-11-04,3040.0
1934-11-05,3080.0
1934-11-06,3090.0
1934-11-07,3010.0
1934-11-08,3080.0
1934-11-09,3050.0
1934-11-10,3050.0
1934-11-11,3020.0
1934-11-12,2970.0
1934-11-13,3060.0
1934-11-14,3140.0
1934-11-15,3270.0
1934-11-16,3390.0
1934-11-17,3360.0
1934-11-18,3610.0
1934-11-19,3700.0
1934-11-20,3910.0
1934-11-21,4160.0
1934-11-22,4090.0
1934-11-23,3940.0
1934-11-24,3970.0
1934-11-25,4190.0
1934-11-26,4120.0
1934-11-27,4280.0
1934-11-28,4190.0
1934-11-29,4310.0
1934-11-30,4310.0
1934-12-01,4310.0
1934-12-02,4340.0
1934-12-03,4400.0
1934-12-04,4430.0
1934-12-05,4310.0
1934-12-06,4370.0
1934-12-07,4430.0
1934-12-08,4370.0
1934-12-09,4190.0
1934-12-10,4160.0
1934-12-11,3970.0
1934-12-12,3730.0
1934-12-13,3580.0
1934-12-14,3640.0
1934-12-15,3640.0
1934-12-16,3880.0
1934-12-17,4370.0
1934-12-18,4120.0
1934-12-19,4430.0
1934-12-20,4590.0
1934-12-21,4970.0
1934-12-22,5100.0
1934-12-23,4940.0
1934-12-24,5000.0
1934-12-25,5160.0
1934-12-26,5200.0
1934-12-27,4940.0
1934-12-28,4780.0
1934-12-29,4750.0
1934-12-30,4810.0
1934-12-31,4840.0
1935-01-01,4550.0
1935-01-02,4550.0
1935-01-03,4550.0
1935-01-04,4500.0
1935-01-05,4560.0
1935-01-06,4620.0
1935-01-07,4680.0
1935-01-08,4480.0
1935-01-09,4350.0
1935-01-10,4340.0
1935-01-11,4140.0
1935-01-12,4380.0
1935-01-13,4560.0
1935-01-14,4550.0
1935-01-15,5770.0
1935-01-16,7280.0
1935-01-17,6980.0
1935-01-18,6100.0
1935-01-19,6010.0
1935-01-20,6500.0
1935-01-21,6330.0
1935-01-22,6050.0
1935-01-23,5580.0
1935-01-24,5141.0
1935-01-25,5020.0
1935-01-26,4640.0
1935-01-27,4110.0
1935-01-28,3480.0
1935-01-29,3240.0
1935-01-30,3180.0
1935-01-31,3210.0
1935-02-01,2550.0
1935-02-02,3170.0
1935-02-03,2200.0
1935-02-04,5110.0
1935-02-05,5250.0
1935-02-06,4980.0
1935-02-07,4180.0
1935-02-08,4390.0
1935-02-09,3150.0
1935-02-10,0.0
1935-02-11,185.0
1935-02-12,370.0
1935-02-13,640.0
1935-02-14,2480.0
1935-02-15,2990.0
1935-02-16,3090.0
1935-02-17,4100.0
1935-02-18,4160.0
1935-02-19,4180.0
1935-02-20,4110.0
1935-02-21,3530.0
1935-02-22,5050.0
1935-02-23,5090.0
1935-02-24,5100.0
1935-02-25,5100.0
1935-02-26,5100.0
1935-02-27,5390.0
1935-02-28,6050.0
1935-03-01,6900.0
1935-03-02,7180.0
1935-03-03,7180.0
1935-03-04,6960.0
1935-03-05,6200.0
1935-03-06,5650.0
1935-03-07,5930.0
1935-03-08,6850.0
1935-03-09,7080.0
1935-03-10,7030.0
1935-03-11,7010.0
1935-03-12,6990.0
1935-03-13,6950.0
1935-03-14,6920.0
1935-03-15,6880.0
1935-03-16,6850.0
1935-03-17,6800.0
1935-03-18,7000.0
1935-03-19,7130.0
1935-03-20,7110.0
1935-03-21,7130.0
1935-03-22,7140.0
1935-03-23,7150.0
1935-03-24,7150.0
1935-03-25,7170.0
1935-03-26,7160.0
1935-03-27,7150.0
1935-03-28,7140.0
1935-03-29,7320.0
1935-03-30,7690.0
1935-03-31,7670.0
1935-04-01,7630.0
1935-04-02,7630.0
1935-04-03,7630.0
1935-04-04,7670.0
1935-04-05,7440.0
1935-04-06,7150.0
1935-04-07,7280.0
1935-04-08,7370.0
1935-04-09,7100.0
1935-04-10,6440.0
1935-04-11,6850.0
1935-04-12,7260.0
1935-04-13,7210.0
1935-04-14,7460.0
1935-04-15,7400.0
1935-04-16,6990.0
1935-04-17,7000.0
1935-04-18,7030.0
1935-04-19,7260.0
1935-04-20,7600.0
1935-04-21,7640.0
1935-04-22,7560.0
1935-04-23,7300.0
1935-04-24,7050.0
1935-04-25,7170.0
1935-04-26,7170.0
1935-04-27,7070.0
1935-04-28,7170.0
1935-04-29,7140.0
1935-04-30,6990.0
1935-05-01,6420.0
1935-05-02,6970.0
1935-05-03,7080.0
1935-05-04,7310.0
1935-05-05,7400.0
1935-05-06,7450.0
1935-05-07,7480.0
1935-05-08,7540.0
1935-05-09,7520.0
1935-05-10,7300.0
1935-05-11,7270.0
1935-05-12,7300.0
1935-05-13,7090.0
1935-05-14,6580.0
1935-05-15,6610.0
1935-05-16,6630.0
1935-05-17,6650.0
1935-05-18,7180.0
1935-05-19,7570.0
1935-05-20,7400.0
1935-05-21,7000.0
1935-05-22,8320.0
1935-05-23,11430.0
1935-05-24,13590.0
1935-05-25,14180.0
1935-05-26,14230.0
1935-05-27,14500.0
1935-05-28,14620.0
1935-05-29,14720.0
1935-05-30,14790.0
1935-05-31,14900.0
1935-06-01,15000.0
1935-06-02,15200.0
1935-06-03,15300.0
1935-06-04,15500.0
1935-06-05,15650.0
1935-06-06,15750.0
1935-06-07,15850.0
1935-06-08,15950.0
1935-06-09,16100.0
1935-06-10,16250.0
1935-06-11,16350.0
1935-06-12,16660.0
1935-06-13,16750.0
1935-06-14,16950.0
1935-06-15,17100.0
1935-06-16,17300.0
1935-06-17,17600.0
1935-06-18,17650.0
1935-06-19,17900.0
1935-06-20,18100.0
1935-06-21,18350.0
1935-06-22,18500.0
1935-06-23,18650.0
1935-06-24,16650.0
1935-06-25,14700.0
1935-06-26,14750.0
1935-06-27,14800.0
1935-06-28,14800.0
1935-06-29,14850.0
1935-06-30,14900.0
1935-07-01,14900.0
1935-07-02,14950.0
1935-07-03,15000.0
1935-07-04,15050.0
1935-07-05,15050.0
1935-07-06,15100.0
1935-07-07,15100.0
1935-07-08,15150.0
1935-07-09,12600.0
1935-07-10,10200.0
1935-07-11,10200.0
1935-07-12,10230.0
1935-07-13,10230.0
1935-07-14,10240.0
1935-07-15,10240.0
1935-07-16,10250.0
1935-07-17,10250.0
1935-07-18,10260.0
1935-07-19,10260.0
1935-07-20,10270.0
1935-07-21,10270.0
1935-07-22,10270.0
1935-07-23,10280.0
1935-07-24,10280.0
1935-07-25,10280.0
1935-07-26,10280.0
1935-07-27,10280.0
1935-07-28,10280.0
1935-07-29,10280.0
1935-07-30,10280.0
1935-07-31,10280.0
1935-08-01,10280.0
1935-08-02,10280.0
1935-08-03,10280.0
1935-08-04,10280.0
1935-08-05,10280.0
1935-08-06,10280.0
1935-08-07,10280.0
1935-08-08,10280.0
1935-08-09,10280.0
1935-08-10,10280.0
1935-08-11,10280.0
1935-08-12,10270.0
1935-08-13,10250.0
1935-08-14,10250.0
1935-08-15,10200.0
1935-08-16,10200.0
1935-08-17,10200.0
1935-08-18,10200.0
1935-08-19,10200.0
1935-08-20,10200.0
1935-08-21,10250.0
1935-08-22,10250.0
1935-08-23,10250.0
1935-08-24,10250.0
1935-08-25,10250.0
1935-08-26,10250.0
1935-08-27,10250.0
1935-08-28,10250.0
1935-08-29,10250.0
1935-08-30,10250.0
1935-08-31,10200.0
1935-09-01,10200.0
1935-09-02,10200.0
1935-09-03,10200.0
1935-09-04,10200.0
1935-09-05,10200.0
1935-09-06,10200.0
1935-09-07,10200.0
1935-09-08,10130.0
1935-09-09,10150.0
1935-09-10,10150.0
1935-09-11,10150.0
1935-09-12,10150.0
1935-09-13,10150.0
1935-09-14,10100.0
1935-09-15,10100.0
1935-09-16,10100.0
1935-09-17,10100.0
1935-09-18,10100.0
1935-09-19,10100.0
1935-09-20,10100.0
1935-09-21,10100.0
1935-09-22,10100.0
1935-09-23,10100.0
1935-09-24,10150.0
1935-09-25,10050.0
1935-09-26,10050.0
1935-09-27,10050.0
1935-09-28,10050.0
1935-09-29,10050.0
1935-09-30,10050.0
1935-10-01,10050.0
1935-10-02,10050.0
1935-10-03,10050.0
1935-10-04,10050.0
1935-10-05,10050.0
1935-10-06,10050.0
1935-10-07,10050.0
1935-10-08,10050.0
1935-10-09,10050.0
1935-10-10,10050.0
1935-10-11,10050.0
1935-10-12,10000.0
1935-10-13,10000.0
1935-10-14,10000.0
1935-10-15,9975.0
1935-10-16,9950.0
1935-10-17,9950.0
1935-10-18,9950.0
1935-10-19,9950.0
1935-10-20,9925.0
1935-10-21,9925.0
1935-10-22,9900.0
1935-10-23,9900.0
1935-10-24,9900.0
1935-10-25,9900.0
1935-10-26,9900.0
1935-10-27,9875.0
1935-10-28,9875.0
1935-10-29,9875.0
1935-10-30,9850.0
1935-10-31,9859.0
1935-11-01,9850.0
1935-11-02,9850.0
1935-11-03,9850.0
1935-11-04,9850.0
1935-11-05,9825.0
1935-11-06,9825.0
1935-11-07,9825.0
1935-11-08,9825.0
1935-11-09,9825.0
1935-11-10,9825.0
1935-11-11,9825.0
1935-11-12,9825.0
1935-11-13,9800.0
1935-11-14,9800.0
1935-11-15,9775.0
1935-11-16,9775.0
1935-11-17,9775.0
1935-11-18,9775.0
1935-11-19,9750.0
1935-11-20,9750.0
1935-11-21,9750.0
1935-11-22,9750.0
1935-11-23,9725.0
1935-11-24,9725.0
1935-11-25,9725.0
1935-11-26,9725.0
1935-11-27,9725.0
1935-11-28,9725.0
1935-11-29,9725.0
1935-11-30,6220.0
1935-12-01,4800.0
1935-12-02,4800.0
1935-12-03,4800.0
1935-12-04,4800.0
1935-12-05,4800.0
1935-12-06,4800.0
1935-12-07,4800.0
1935-12-08,4800.0
1935-12-09,4800.0
1935-12-10,4800.0
1935-12-11,4800.0
1935-12-12,4800.0
1935-12-13,4800.0
1935-12-14,4800.0
1935-12-15,4800.0
1935-12-16,4800.0
1935-12-17,4825.0
1935-12-18,4825.0
1935-12-19,4850.0
1935-12-20,4850.0
1935-12-21,4850.0
1935-12-22,4850.0
1935-12-23,4850.0
1935-12-24,4850.0
1935-12-25,4850.0
1935-12-26,4850.0
1935-12-27,4825.0
1935-12-28,4825.0
1935-12-29,4825.0
1935-12-30,4850.0
1935-12-31,4850.0
1936-01-01,4850.0
1936-01-02,4850.0
1936-01-03,4850.0
1936-01-04,4800.0
1936-01-05,4800.0
1936-01-06,4800.0
1936-01-07,4800.0
1936-01-08,4800.0
1936-01-09,4800.0
1936-01-10,4800.0
1936-01-11,4800.0
1936-01-12,4800.0
1936-01-13,4800.0
1936-01-14,4800.0
1936-01-15,4800.0
1936-01-16,4800.0
1936-01-17,4800.0
1936-01-18,4800.0
1936-01-19,4800.0
1936-01-20,4800.0
1936-01-21,4800.0
1936-01-22,4800.0
1936-01-23,4800.0
1936-01-24,4800.0
1936-01-25,4800.0
1936-01-26,4800.0
1936-01-27,4800.0
1936-01-28,4800.0
1936-01-29,4825.0
1936-01-30,4825.0
1936-01-31,4825.0
1936-02-01,4825.0
1936-02-02,4825.0
1936-02-03,4825.0
1936-02-04,4825.0
1936-02-05,4825.0
1936-02-06,4825.0
1936-02-07,4825.0
1936-02-08,4825.0
1936-02-09,4825.0
1936-02-10,4825.0
1936-02-11,5355.0
1936-02-12,6125.0
1936-02-13,5900.0
1936-02-14,5900.0
1936-02-15,5990.0
1936-02-16,6250.0
1936-02-17,6250.0
1936-02-18,6250.0
1936-02-19,6250.0
1936-02-20,6025.0
1936-02-21,5800.0
1936-02-22,5590.0
1936-02-23,5500.0
1936-02-24,5575.0
1936-02-25,5575.0
1936-02-26,5540.0
1936-02-27,5675.0
1936-02-28,5830.0
1936-02-29,6075.0
1936-03-01,6250.0
1936-03-02,6250.0
1936-03-03,6520.0
1936-03-04,7025.0
1936-03-05,7510.0
1936-03-06,8200.0
1936-03-07,8875.0
1936-03-08,8875.0
1936-03-09,9350.0
1936-03-10,9650.0
1936-03-11,9825.0
1936-03-12,9900.0
1936-03-13,9900.0
1936-03-14,9850.0
1936-03-15,9850.0
1936-03-16,9850.0
1936-03-17,9850.0
1936-03-18,9900.0
1936-03-19,9900.0
1936-03-20,9900.0
1936-03-21,9900.0
1936-03-22,9900.0
1936-03-23,9900.0
1936-03-24,9900.0
1936-03-25,9900.0
1936-03-26,9900.0
1936-03-27,9900.0
1936-03-28,9900.0
1936-03-29,9900.0
1936-03-30,9900.0
1936-03-31,9900.0
1936-04-01,9850.0
1936-04-02,9850.0
1936-04-03,9550.0
1936-04-04,9875.0
1936-04-05,9850.0
1936-04-06,9850.0
1936-04-07,9850.0
1936-04-08,9850.0
1936-04-09,9850.0
1936-04-10,9850.0
1936-04-11,9850.0
1936-04-12,9850.0
1936-04-13,9850.0
1936-04-14,9850.0
1936-04-15,9850.0
1936-04-16,9850.0
1936-04-17,9850.0
1936-04-18,9850.0
1936-04-19,9850.0
1936-04-20,9850.0
1936-04-21,9850.0
1936-04-22,9900.0
1936-04-23,9950.0
1936-04-24,9930.0
1936-04-25,10000.0
1936-04-26,10050.0
1936-04-27,10350.0
1936-04-28,10850.0
1936-04-29,10900.0
1936-04-30,10950.0
1936-05-01,8200.0
1936-05-02,9500.0
1936-05-03,10050.0
1936-05-04,10100.0
1936-05-05,10200.0
1936-05-06,10150.0
1936-05-07,10100.0
1936-05-08,10025.0
1936-05-09,10000.0
1936-05-10,10100.0
1936-05-11,9690.0
1936-05-12,8850.0
1936-05-13,9280.0
1936-05-14,9225.0
1936-05-15,9350.0
1936-05-16,8750.0
1936-05-17,8800.0
1936-05-18,8850.0
1936-05-19,9400.0
1936-05-20,9250.0
1936-05-21,8460.0
1936-05-22,8350.0
1936-05-23,8350.0
1936-05-24,8950.0
1936-05-25,8400.0
1936-05-26,8650.0
1936-05-27,8800.0
1936-05-28,9225.0
1936-05-29,9500.0
1936-05-30,2555.0
1936-05-31,9690.0
1936-06-01,9550.0
1936-06-02,9600.0
1936-06-03,9650.0
1936-06-04,9750.0
1936-06-05,9800.0
1936-06-06,9750.0
1936-06-07,9550.0
1936-06-08,9600.0
1936-06-09,9525.0
1936-06-10,9550.0
1936-06-11,9525.0
1936-06-12,9060.0
1936-06-13,9725.0
1936-06-14,10100.0
1936-06-15,10100.0
1936-06-16,10100.0
1936-06-17,10475.0
1936-06-18,10900.0
1936-06-19,10850.0
1936-06-20,10850.0
1936-06-21,10850.0
1936-06-22,10970.0
1936-06-23,11150.0
1936-06-24,11400.0
1936-06-25,11550.0
1936-06-26,11550.0
1936-06-27,11550.0
1936-06-28,11575.0
1936-06-29,11600.0
1936-06-30,11600.0
1936-07-01,11600.0
1936-07-02,11600.0
1936-07-03,11550.0
1936-07-04,11500.0
1936-07-05,11500.0
1936-07-06,11500.0
1936-07-07,11500.0
1936-07-08,11500.0
1936-07-09,11600.0
1936-07-10,11500.0
1936-07-11,11500.0
1936-07-12,11500.0
1936-07-13,11500.0
1936-07-14,11500.0
1936-07-15,11360.0
1936-07-16,11300.0
1936-07-17,11325.0
1936-07-18,11325.0
1936-07-19,11325.0
1936-07-20,11325.0
1936-07-21,11325.0
1936-07-22,11325.0
1936-07-23,11250.0
1936-07-24,11200.0
1936-07-25,11200.0
1936-07-26,11200.0
1936-07-27,11200.0
1936-07-28,11200.0
1936-07-29,11200.0
1936-07-30,11085.0
1936-07-31,11100.0
1936-08-01,11000.0
1936-08-02,11000.0
1936-08-03,10875.0
1936-08-04,10660.0
1936-08-05,10500.0
1936-08-06,10500.0
1936-08-07,10500.0
1936-08-08,10525.0
1936-08-09,10500.0
1936-08-10,10150.0
1936-08-11,9800.0
1936-08-12,9725.0
1936-08-13,9700.0
1936-08-14,9700.0
1936-08-15,9700.0
1936-08-16,9700.0
1936-08-17,9700.0
1936-08-18,9700.0
1936-08-19,9700.0
1936-08-20,9650.0
1936-08-21,9650.0
1936-08-22,9700.0
1936-08-23,9700.0
1936-08-24,9700.0
1936-08-25,9325.0
1936-08-26,9700.0
1936-08-27,9700.0
1936-08-28,9700.0
1936-08-29,9650.0
1936-08-30,9650.0
1936-08-31,9650.0
1936-09-01,9650.0
1936-09-02,9650.0
1936-09-03,9650.0
1936-09-04,9650.0
1936-09-05,9650.0
1936-09-06,9650.0
1936-09-07,9650.0
1936-09-08,9900.0
1936-09-09,9575.0
1936-09-10,9650.0
1936-09-11,9000.0
1936-09-12,9700.0
1936-09-13,9700.0
1936-09-14,9825.0
1936-09-15,10030.0
1936-09-16,9700.0
1936-09-17,9660.0
1936-09-18,9400.0
1936-09-19,9625.0
1936-09-20,9625.0
1936-09-21,9460.0
1936-09-22,9100.0
1936-09-23,9100.0
1936-09-24,9000.0
1936-09-25,9000.0
1936-09-26,8950.0
1936-09-27,8650.0
1936-09-28,8565.0
1936-09-29,8325.0
1936-09-30,8325.0
1936-10-01,8390.0
1936-10-02,8260.0
1936-10-03,8290.0
1936-10-04,8325.0
1936-10-05,8325.0
1936-10-06,8090.0
1936-10-07,7480.0
1936-10-08,7410.0
1936-10-09,7610.0
1936-10-10,7415.0
1936-10-11,6400.0
1936-10-12,7275.0
1936-10-13,7250.0
1936-10-14,7250.0
1936-10-15,7100.0
1936-10-16,7165.0
1936-10-17,7250.0
1936-10-18,7050.0
1936-10-19,7050.0
1936-10-20,7100.0
1936-10-21,7110.0
1936-10-22,7000.0
1936-10-23,6900.0
1936-10-24,7110.0
1936-10-25,7215.0
1936-10-26,6555.0
1936-10-27,7135.0
1936-10-28,7580.0
1936-10-29,6520.0
1936-10-30,6375.0
1936-10-31,6220.0
1936-11-01,6225.0
1936-11-02,6235.0
1936-11-03,6360.0
1936-11-04,6445.0
1936-11-05,6510.0
1936-11-06,6225.0
1936-11-07,6255.0
1936-11-08,6185.0
1936-11-09,6380.0
1936-11-10,6125.0
1936-11-11,6180.0
1936-11-12,6090.0
1936-11-13,6510.0
1936-11-14,6050.0
1936-11-15,6790.0
1936-11-16,6225.0
1936-11-17,6065.0
1936-11-18,5945.0
1936-11-19,5925.0
1936-11-20,5890.0
1936-11-21,5745.0
1936-11-22,5725.0
1936-11-23,5935.0
1936-11-24,5835.0
1936-11-25,5300.0
1936-11-26,5040.0
1936-11-27,5260.0
1936-11-28,5065.0
1936-11-29,5250.0
1936-11-30,5290.0
1936-12-01,5230.0
1936-12-02,4990.0
1936-12-03,5010.0
1936-12-04,5110.0
1936-12-05,4720.0
1936-12-06,4615.0
1936-12-07,5000.0
1936-12-08,5020.0
1936-12-09,4990.0
1936-12-10,5075.0
1936-12-11,4985.0
1936-12-12,4740.0
1936-12-13,4535.0
1936-12-14,4925.0
1936-12-15,4985.0
1936-12-16,4980.0
1936-12-17,5050.0
1936-12-18,4940.0
1936-12-19,4925.0
1936-12-20,4820.0
1936-12-21,4950.0
1936-12-22,5010.0
1936-12-23,4985.0
1936-12-24,4950.0
1936-12-25,5025.0
1936-12-26,4880.0
1936-12-27,4905.0
1936-12-28,5220.0
1936-12-29,5435.0
1936-12-30,5530.0
1936-12-31,5350.0
1937-01-01,3670.0
1937-01-02,4880.0
1937-01-03,4400.0
1937-01-04,5050.0
1937-01-05,5110.0
1937-01-06,4890.0
1937-01-07,4900.0
1937-01-08,5500.0
1937-01-09,4800.0
1937-01-10,3900.0
1937-01-11,5050.0
1937-01-12,4845.0
1937-01-13,4880.0
1937-01-14,4810.0
1937-01-15,4800.0
1937-01-16,4605.0
1937-01-17,4295.0
1937-01-18,4850.0
1937-01-19,4890.0
1937-01-20,5025.0
1937-01-21,4979.0
1937-01-22,5045.0
1937-01-23,4660.0
1937-01-24,4150.0
1937-01-25,4980.0
1937-01-26,5050.0
1937-01-27,5025.0
1937-01-28,5155.0
1937-01-29,4980.0
1937-01-30,5015.0
1937-01-31,4220.0
1937-02-01,5220.0
1937-02-02,5160.0
1937-02-03,4940.0
1937-02-04,5100.0
1937-02-05,4985.0
1937-02-06,4950.0
1937-02-07,5075.0
1937-02-08,5100.0
1937-02-09,5100.0
1937-02-10,5170.0
1937-02-11,5440.0
1937-02-12,5285.0
1937-02-13,5335.0
1937-02-14,5200.0
1937-02-15,5360.0
1937-02-16,5540.0
1937-02-17,5440.0
1937-02-18,5575.0
1937-02-19,5555.0
1937-02-20,5330.0
1937-02-21,5300.0
1937-02-22,5425.0
1937-02-23,5540.0
1937-02-24,5815.0
1937-02-25,6215.0
1937-02-26,6935.0
1937-02-27,7320.0
1937-02-28,7210.0
1937-03-01,7240.0
1937-03-02,7070.0
1937-03-03,7215.0
1937-03-04,7170.0
1937-03-05,7155.0
1937-03-06,7010.0
1937-03-07,7435.0
1937-03-08,7740.0
1937-03-09,8260.0
1937-03-10,9220.0
1937-03-11,9570.0
1937-03-12,9560.0
1937-03-13,9400.0
1937-03-14,9450.0
1937-03-15,9495.0
1937-03-16,9445.0
1937-03-17,9445.0
1937-03-18,9160.0
1937-03-19,9000.0
1937-03-20,8910.0
1937-03-21,8940.0
1937-03-22,9145.0
1937-03-23,9190.0
1937-03-24,8215.0
1937-03-25,7445.0
1937-03-26,7300.0
1937-03-27,7820.0
1937-03-28,8185.0
1937-03-29,8855.0
1937-03-30,9170.0
1937-03-31,9230.0
1937-04-01,9380.0
1937-04-02,9210.0
1937-04-03,9040.0
1937-04-04,9110.0
1937-04-05,9255.0
1937-04-06,9160.0
1937-04-07,9205.0
1937-04-08,9110.0
1937-04-09,9330.0
1937-04-10,9130.0
1937-04-11,9065.0
1937-04-12,9540.0
1937-04-13,9035.0
1937-04-14,9460.0
1937-04-15,9480.0
1937-04-16,9470.0
1937-04-17,9400.0
1937-04-18,9475.0
1937-04-19,9500.0
1937-04-20,9480.0
1937-04-21,9490.0
1937-04-22,9480.0
1937-04-23,9565.0
1937-04-24,9572.0
1937-04-25,9760.0
1937-04-26,9810.0
1937-04-27,9755.0
1937-04-28,9520.0
1937-04-29,9915.0
1937-04-30,9835.0
1937-05-01,9740.0
1937-05-02,9945.0
1937-05-03,9835.0
1937-05-04,9740.0
1937-05-05,9755.0
1937-05-06,9906.0
1937-05-07,9795.0
1937-05-08,9460.0
1937-05-09,9460.0
1937-05-10,9400.0
1937-05-11,9560.0
1937-05-12,9415.0
1937-05-13,9280.0
1937-05-14,8930.0
1937-05-15,8955.0
1937-05-16,8950.0
1937-05-17,8685.0
1937-05-18,8435.0
1937-05-19,8335.0
1937-05-20,8365.0
1937-05-21,8360.0
1937-05-22,8350.0
1937-05-23,8380.0
1937-05-24,8360.0
1937-05-25,8340.0
1937-05-26,8320.0
1937-05-27,8350.0
1937-05-28,8355.0
1937-05-29,8290.0
1937-05-30,8340.0
1937-05-31,8360.0
1937-06-01,8355.0
1937-06-02,8300.0
1937-06-03,8415.0
1937-06-04,8625.0
1937-06-05,8950.0
1937-06-06,8850.0
1937-06-07,8850.0
1937-06-08,8845.0
1937-06-09,9160.0
1937-06-10,9385.0
1937-06-11,9380.0
1937-06-12,9370.0
1937-06-13,9405.0
1937-06-14,9375.0
1937-06-15,9395.0
1937-06-16,9400.0
1937-06-17,9820.0
1937-06-18,10500.0
1937-06-19,10400.0
1937-06-20,10195.0
1937-06-21,10200.0
1937-06-22,10500.0
1937-06-23,10520.0
1937-06-24,10740.0
1937-06-25,10730.0
1937-06-26,10740.0
1937-06-27,10720.0
1937-06-28,10720.0
1937-06-29,10715.0
1937-06-30,10700.0
1937-07-01,10720.0
1937-07-02,10700.0
1937-07-03,10700.0
1937-07-04,10710.0
1937-07-05,10715.0
1937-07-06,10800.0
1937-07-07,10900.0
1937-07-08,10900.0
1937-07-09,10900.0
1937-07-10,10880.0
1937-07-11,10910.0
1937-07-12,10940.0
1937-07-13,10960.0
1937-07-14,10940.0
1937-07-15,10930.0
1937-07-16,10930.0
1937-07-17,10940.0
1937-07-18,10930.0
1937-07-19,10940.0
1937-07-20,10925.0
1937-07-21,11160.0
1937-07-22,10930.0
1937-07-23,10940.0
1937-07-24,10965.0
1937-07-25,10970.0
1937-07-26,10915.0
1937-07-27,10880.0
1937-07-28,10945.0
1937-07-29,10945.0
1937-07-30,10930.0
1937-07-31,10930.0
1937-08-01,10930.0
1937-08-02,10945.0
1937-08-03,10910.0
1937-08-04,10930.0
1937-08-05,10920.0
1937-08-06,10905.0
1937-08-07,10870.0
1937-08-08,10905.0
1937-08-09,10880.0
1937-08-10,10845.0
1937-08-11,10895.0
1937-08-12,10945.0
1937-08-13,10910.0
1937-08-14,10890.0
1937-08-15,10900.0
1937-08-16,10830.0
1937-08-17,10950.0
1937-08-18,10895.0
1937-08-19,10870.0
1937-08-20,10910.0
1937-08-21,10830.0
1937-08-22,10910.0
1937-08-23,10750.0
1937-08-24,10385.0
1937-08-25,10385.0
1937-08-26,10380.0
1937-08-27,10545.0
1937-08-28,10375.0
1937-08-29,10375.0
1937-08-30,10375.0
1937-08-31,10405.0
1937-09-01,10385.0
1937-09-02,10720.0
1937-09-03,10500.0
1937-09-04,10370.0
1937-09-05,10370.0
1937-09-06,10370.0
1937-09-07,10190.0
1937-09-08,9935.0
1937-09-09,9940.0
1937-09-10,9960.0
1937-09-11,9970.0
1937-09-12,9990.0
1937-09-13,9760.0
1937-09-14,9360.0
1937-09-15,9130.0
1937-09-16,8890.0
1937-09-17,8935.0
1937-09-18,8870.0
1937-09-19,8870.0
1937-09-20,8890.0
1937-09-21,8940.0
1937-09-22,8935.0
1937-09-23,9695.0
1937-09-24,8540.0
1937-09-25,8560.0
1937-09-26,8550.0
1937-09-27,8625.0
1937-09-28,8535.0
1937-09-29,8555.0
1937-09-30,8550.0
1937-10-01,8825.0
1937-10-02,8580.0
1937-10-03,8535.0
1937-10-04,8515.0
1937-10-05,8490.0
1937-10-06,8505.0
1937-10-07,8520.0
1937-10-08,8495.0
1937-10-09,8495.0
1937-10-10,8485.0
1937-10-11,8945.0
1937-10-12,8820.0
1937-10-13,8625.0
1937-10-14,8555.0
1937-10-15,8595.0
1937-10-16,8625.0
1937-10-17,8600.0
1937-10-18,8485.0
1937-10-19,8335.0
1937-10-20,8190.0
1937-10-21,7870.0
1937-10-22,7860.0
1937-10-23,7810.0
1937-10-24,7870.0
1937-10-25,8110.0
1937-10-26,8180.0
1937-10-27,7990.0
1937-10-28,7995.0
1937-10-29,7915.0
1937-10-30,7655.0
1937-10-31,7710.0
1937-11-01,8015.0
1937-11-02,7595.0
1937-11-03,7870.0